Showing default

IRIDIUM 147, 43480

Orbit data source: Space-Track

IRIDIUM 147, 43480 is a payload satellite owned by Iridium (US) in LEO that was launched on Tue, 22 May 2018 UTC via an FALCON 9 launch vehicle from the Air Force Western Test Range (AFWTR). Payload-class satellites include a variety of spacecraft equipped with specific instruments for various scientific and technological missions. These include communications satellites like Starlink; space stations such as the ISS; scientific satellites like the Hubble; Earth observation satellites from companies like Planet Labs, Umbra, and HawkEye 360; GPS; miniature CubeSats for education and research; and military/defense satellites.

Loading next visibility...
Identifier
43480, 2018-047E
Orbit
LEO
Country
Flag of USUS
Related business
Manufacturer
OATK SSG Gilbert
Mission
Operational Commercial Communications
Bus & Motor
ELITEBUS, Unknown motor
Mass
860 kg wet, 700 kg dry
Launch date (UTC)
2018-05-22 (7 years ago)
Launch vehicle
FALCON 9
Launch site
Air Force Western Test Range (AFWTR)
Object type
Payload
Rocket body
Debris
Shape & HBR
Trap Box + 2 Pan, 4.7 m
Radar Cross Section
14.423 m², Large (>1 m²)

Expand to show TLE details & history
Last TLE update: 19 hours ago

TLE from 19 hours ago
0 IRIDIUM 147
1 43480U 18047E   25260.10396050  .00000138  00000-0  42168-4 0  9995
2 43480  86.4019 202.3921 0002171  83.5413 276.6030 14.34218723383343
Epoch: 2025-09-17T02:29Z
TLE epoch observation values (Epoch: 2025-09-17T02:29:42.187Z)
Latitude
-0°
Longitude
168.68162°
Altitude
780.537 km
Speed
7.464 km/s
True Right ascension
13h 29m 34s
True Declination
0° 00' 00"
Sunlit
Object was in daylight at epoch
Visualization orbit readout
Latitude
Unknown
Longitude
Unknown
Altitude
Unknown
Speed
Unknown
Apparent Right ascension
Unknown
Apparent Declination
Unknown
Sunlit
N/A
Visualization observer readout
Local Sidereal Time
14:11:03
Azimuth
Unknown
Elevation
Unknown
Doppler factor
Unknown
Orbital elements
Apogee altitude
776.181 km
Perigee altitude
773.075 km
Semi-major axis
7,152.765 km
Eccentricity
0.00022
Inclination
86.4019°
RAAN
202.3921°
Arg. of periapsis
83.5413°
True anomaly
276.57829°
Mean anomaly
276.603°
Eccentric anomaly
276.59064°
Mean motion
3.58783 °/min
Orbital period
100.34 mins
BSTAR
0.000042168
Loading maneuver chart data...
Computing Atmospheric mass density...
Loading historical data...
Loading historical data...
Loading historical data...
Loading historical data...
Loading historical data...
Loading historical data...
Loading historical data...

Documentation

Showing up to 5 results
|